,,,PA_Meas_PMT16A,,PR_Meas_QMR101_102,,RH_Meas_QMH101,,SR_Meas_QMS101,,TA_Meas_QMH101,,GenWind,,GenWind,
date,time,status,PA,status,PR,status,RH,status,SR,status,TA,status,DirAvg,status,SpdAvg,
2008-04-24, 00:00:05,VALID,1005.33,VALID,0,VALID,96.8258,VALID,0,VALID,23.8982,VALID,1,VALID,0.520703,
2008-04-24, 00:01:05,VALID,1005.3,VALID,0,VALID,96.8258,VALID,0,VALID,23.8982,VALID,1,VALID,0.485547,
2008-04-24, 00:02:05,VALID,1005.27,VALID,0,VALID,96.8258,VALID,0,VALID,23.9389,VALID,1,VALID,0.323047,
2008-04-24, 00:03:05,VALID,1005.27,VALID,0,VALID,96.8258,VALID,0,VALID,23.9389,VALID,1,VALID,0.345313,
2008-04-24, 00:04:05,VALID,1005.25,VALID,0,VALID,96.8181,VALID,0,VALID,23.9584,VALID,1,VALID,0.510938,
2008-04-24, 00:05:05,VALID,1005.22,VALID,0,VALID,96.8029,VALID,0,VALID,23.9389,VALID,1,VALID,0.191016,
2008-04-24, 00:06:05,VALID,1005.18,VALID,0.5,VALID,96.8181,VALID,0,VALID,23.9389,VALID,1,VALID,0,
2008-04-24, 00:07:05,VALID,1005.13,VALID,0,VALID,96.8334,VALID,0,VALID,23.9779,VALID,1,VALID,0.096875,
2008-04-24, 00:08:05,VALID,1005.14,VALID,0,VALID,96.8105,VALID,0,VALID,23.9779,VALID,1,VALID,0,
2008-04-24, 00:09:05,VALID,1005.13,VALID,0,VALID,96.8334,VALID,0,VALID,23.9779,VALID,1,VALID,0,
2008-04-24, 00:10:05,VALID,1005.11,VALID,0,VALID,96.8334,VALID,0,VALID,23.9566,VALID,1,VALID,0,
2008-04-24, 00:11:05,VALID,1005.1,VALID,0,VALID,96.8105,VALID,0,VALID,23.9973,VALID,1,VALID,0,
2008-04-24, 00:12:05,VALID,1005.1,VALID,0,VALID,96.8486,VALID,0,VALID,24.0168,VALID,1,VALID,0,
2008-04-24, 00:13:05,VALID,1005.06,VALID,0,VALID,96.8334,VALID,0,VALID,24.0363,VALID,1,VALID,0.0777344,
2008-04-24, 00:14:05,VALID,1005.03,VALID,0.5,VALID,96.8334,VALID,0,VALID,24.077,VALID,1,VALID,0,
2008-04-24, 00:15:05,VALID,1005.05,VALID,0,VALID,96.8334,VALID,0,VALID,24.015,VALID,1,VALID,0,
2008-04-24, 00:16:05,VALID,1005.04,VALID,0,VALID,96.8258,VALID,0,VALID,24.0557,VALID,1,VALID,0,
2008-04-24, 00:17:05,VALID,1005.04,VALID,0,VALID,96.8181,VALID,0,VALID,24.0557,VALID,1,VALID,0,
2008-04-24, 00:18:05,VALID,1005.04,VALID,0,VALID,96.8334,VALID,0,VALID,24.0345,VALID,1,VALID,0,
2008-04-24, 00:19:05,VALID,1005.04,VALID,0.5,VALID,96.8181,VALID,0,VALID,24.0557,VALID,1,VALID,0,
2008-04-24, 00:20:05,VALID,1005.04,VALID,0,VALID,96.8334,VALID,0.100563,VALID,24.0345,VALID,1,VALID,0.273047,
2008-04-24, 00:21:05,VALID,1005.03,VALID,0,VALID,96.8105,VALID,0,VALID,24.0363,VALID,1,VALID,0.321094,
2008-04-24, 00:22:05,VALID,1005.03,VALID,0,VALID,96.8029,VALID,0,VALID,24.0168,VALID,1,VALID,0.410156,
2008-04-24, 00:23:05,VALID,1004.99,VALID,0,VALID,96.8181,VALID,0,VALID,23.9761,VALID,1,VALID,0.415234,
2008-04-24, 00:24:05,VALID,1004.99,VALID,0,VALID,96.8486,VALID,0,VALID,23.9955,VALID,1,VALID,0.501562,
2008-04-24, 00:25:05,VALID,1004.97,VALID,0.5,VALID,96.8029,VALID,0,VALID,23.9566,VALID,1,VALID,0.575781,
2008-04-24, 00:26:05,VALID,1004.94,VALID,0,VALID,96.8181,VALID,0,VALID,23.9566,VALID,1,VALID,0.416016,
2008-04-24, 00:27:05,VALID,1004.97,VALID,0,VALID,96.8181,VALID,0,VALID,23.9584,VALID,353,VALID,0.482422,
2008-04-24, 00:28:05,VALID,1004.95,VALID,0,VALID,96.8334,VALID,0,VALID,23.9584,VALID,351,VALID,0.435937,
2008-04-24, 00:29:05,VALID,1004.96,VALID,0,VALID,96.8258,VALID,0,VALID,23.9371,VALID,351,VALID,0.358984,
2008-04-24, 00:30:05,VALID,1004.95,VALID,0.5,VALID,96.841,VALID,0,VALID,23.9779,VALID,352,VALID,0.601563,
2008-04-24, 00:31:05,VALID,1004.97,VALID,0,VALID,96.8486,VALID,0,VALID,23.9566,VALID,352,VALID,0.49375,
2008-04-24, 00:32:05,VALID,1004.96,VALID,0,VALID,96.8639,VALID,0,VALID,23.9779,VALID,352,VALID,0.560156,
2008-04-24, 00:33:05,VALID,1004.94,VALID,0,VALID,96.8563,VALID,0,VALID,23.9761,VALID,352,VALID,0.392578,
2008-04-24, 00:34:05,VALID,1004.95,VALID,0,VALID,96.8715,VALID,0,VALID,23.9761,VALID,352,VALID,0.432031,
2008-04-24, 00:35:05,VALID,1004.93,VALID,0,VALID,96.8715,VALID,0,VALID,24.0363,VALID,352,VALID,0.407422,
2008-04-24, 00:36:05,VALID,1004.94,VALID,0,VALID,96.8792,VALID,0,VALID,24.015,VALID,352,VALID,0.473047,
2008-04-24, 00:37:05,VALID,1004.94,VALID,0.5,VALID,96.902,VALID,0,VALID,24.0947,VALID,34,VALID,0.798828,
2008-04-24, 00:38:05,VALID,1004.91,VALID,0,VALID,96.8944,VALID,0,VALID,24.1336,VALID,24,VALID,0.637891,
2008-04-24, 00:39:05,VALID,1004.91,VALID,0,VALID,96.9173,VALID,0,VALID,24.1513,VALID,32,VALID,1.07266,
2008-04-24, 00:40:05,VALID,1004.91,VALID,0,VALID,96.902,VALID,0,VALID,24.1707,VALID,23,VALID,1.00234,
2008-04-24, 00:41:05,VALID,1004.92,VALID,0,VALID,96.8868,VALID,0,VALID,24.192,VALID,28,VALID,0.71875,
2008-04-24, 00:42:05,VALID,1004.9,VALID,0,VALID,96.8944,VALID,0,VALID,24.192,VALID,23,VALID,0.428125,
2008-04-24, 00:43:05,VALID,1004.86,VALID,0,VALID,96.8792,VALID,0.100563,VALID,24.192,VALID,14,VALID,0.906641,
2008-04-24, 00:44:05,VALID,1004.88,VALID,0,VALID,96.8715,VALID,0,VALID,24.1531,VALID,34,VALID,0.780469,
2008-04-24, 00:45:05,VALID,1004.88,VALID,0.5,VALID,96.8715,VALID,0,VALID,24.1336,VALID,23,VALID,0.724609,
2008-04-24, 00:46:05,VALID,1004.86,VALID,0,VALID,96.8715,VALID,0,VALID,24.1142,VALID,38,VALID,0.437109,
2008-04-24, 00:47:05,VALID,1004.84,VALID,0,VALID,96.8715,VALID,0,VALID,24.1142,VALID,34,VALID,0.553906,
2008-04-24, 00:48:05,VALID,1004.84,VALID,0,VALID,96.8563,VALID,0,VALID,24.0965,VALID,17,VALID,0.584766,
2008-04-24, 00:49:05,VALID,1004.82,VALID,0,VALID,96.8563,VALID,0,VALID,24.0557,VALID,348,VALID,0.536328,
2008-04-24, 00:50:05,VALID,1004.83,VALID,0,VALID,96.8563,VALID,0,VALID,24.0557,VALID,27,VALID,0.665625,
2008-04-24, 00:51:05,VALID,1004.84,VALID,0,VALID,96.8639,VALID,0,VALID,24.0186,VALID,49,VALID,0.426953,
2008-04-24, 00:52:05,VALID,1004.81,VALID,0,VALID,96.8334,VALID,0,VALID,23.9371,VALID,45,VALID,0.724219,
2008-04-24, 00:53:05,VALID,1004.81,VALID,0,VALID,96.8563,VALID,0,VALID,23.9779,VALID,45,VALID,0.460938,
2008-04-24, 00:54:05,VALID,1004.82,VALID,0,VALID,96.841,VALID,0,VALID,23.9779,VALID,45,VALID,0.0984375,
2008-04-24, 00:55:05,VALID,1004.81,VALID,0,VALID,96.8486,VALID,0,VALID,23.9602,VALID,53,VALID,0.404297,
2008-04-24, 00:56:05,VALID,1004.79,VALID,0,VALID,96.841,VALID,0,VALID,23.9389,VALID,61,VALID,0.187109,
2008-04-24, 00:57:05,VALID,1004.78,VALID,0,VALID,96.8639,VALID,0,VALID,23.9389,VALID,61,VALID,0.183984,
2008-04-24, 00:58:05,VALID,1004.78,VALID,0.5,VALID,96.8486,VALID,0,VALID,23.9195,VALID,61,VALID,0.144531,
2008-04-24, 00:59:05,VALID,1004.8,VALID,0,VALID,96.8639,VALID,0,VALID,23.9,VALID,62,VALID,0.284766,
2008-04-24, 01:00:05,VALID,1004.8,VALID,0,VALID,96.8715,VALID,0,VALID,23.9,VALID,77,VALID,0.288281,
2008-04-24, 01:01:05,VALID,1004.8,VALID,0,VALID,96.8563,VALID,0,VALID,23.8593,VALID,58,VALID,0.328516,
2008-04-24, 01:02:05,VALID,1004.78,VALID,0,VALID,96.8639,VALID,0,VALID,23.8611,VALID,95,VALID,0.535547,
2008-04-24, 01:03:05,VALID,1004.79,VALID,0,VALID,96.8715,VALID,0,VALID,23.8824,VALID,74,VALID,0.300391,
2008-04-24, 01:04:05,VALID,1004.77,VALID,0,VALID,96.8715,VALID,0,VALID,23.8611,VALID,74,VALID,0.256641,
2008-04-24, 01:05:05,VALID,1004.76,VALID,0,VALID,96.8715,VALID,0,VALID,23.8824,VALID,79,VALID,0.369141,
2008-04-24, 01:06:05,VALID,1004.75,VALID,0,VALID,96.8792,VALID,0,VALID,23.8824,VALID,48,VALID,0.441406,
2008-04-24, 01:07:05,VALID,1004.73,VALID,0,VALID,96.8868,VALID,0,VALID,23.8824,VALID,73,VALID,0.438281,
2008-04-24, 01:08:05,VALID,1004.72,VALID,0,VALID,96.8868,VALID,0,VALID,23.8398,VALID,92,VALID,0.308594,
2008-04-24, 01:09:05,VALID,1004.71,VALID,0,VALID,96.8792,VALID,0,VALID,23.8611,VALID,94,VALID,0.541016,
2008-04-24, 01:10:05,VALID,1004.68,VALID,0,VALID,96.8639,VALID,0,VALID,23.8416,VALID,101,VALID,0.961328,
2008-04-24, 01:11:05,VALID,1004.66,VALID,0,VALID,96.902,VALID,0,VALID,23.8416,VALID,115,VALID,0.465625,
2008-04-24, 01:12:05,VALID,1004.66,VALID,0,VALID,96.8715,VALID,0,VALID,23.8611,VALID,84,VALID,0.782422,
2008-04-24, 01:13:05,VALID,1004.64,VALID,0,VALID,96.8868,VALID,0,VALID,23.8611,VALID,83,VALID,0.878125,
2008-04-24, 01:14:05,VALID,1004.63,VALID,0,VALID,96.8792,VALID,0,VALID,23.8416,VALID,77,VALID,1.07031,
2008-04-24, 01:15:05,VALID,1004.61,VALID,0,VALID,96.9097,VALID,0,VALID,23.8416,VALID,85,VALID,0.969531,
2008-04-24, 01:16:05,VALID,1004.6,VALID,0,VALID,96.8944,VALID,0,VALID,23.8629,VALID,59,VALID,0.589844,
2008-04-24, 01:17:05,VALID,1004.64,VALID,0,VALID,96.8715,VALID,0,VALID,23.8629,VALID,69,VALID,0.426953,
2008-04-24, 01:18:05,VALID,1004.61,VALID,0,VALID,96.9097,VALID,0,VALID,23.8416,VALID,84,VALID,0.593359,
2008-04-24, 01:19:05,VALID,1004.63,VALID,0,VALID,96.9097,VALID,0,VALID,23.8416,VALID,76,VALID,0.740625,
2008-04-24, 01:20:05,VALID,1004.64,VALID,0,VALID,96.8944,VALID,0,VALID,23.8434,VALID,104,VALID,0.704687,
2008-04-24, 01:21:05,VALID,1004.63,VALID,0,VALID,96.9173,VALID,0,VALID,23.8416,VALID,95,VALID,0.574219,
2008-04-24, 01:22:05,VALID,1004.63,VALID,0,VALID,96.902,VALID,0,VALID,23.8416,VALID,108,VALID,0.708594,
2008-04-24, 01:23:05,VALID,1004.63,VALID,0,VALID,96.8944,VALID,0,VALID,23.8416,VALID,88,VALID,0.935547,
2008-04-24, 01:24:05,VALID,1004.64,VALID,0,VALID,96.9097,VALID,0,VALID,23.8416,VALID,100,VALID,0.869922,
2008-04-24, 01:25:05,VALID,1004.65,VALID,0,VALID,96.9097,VALID,0,VALID,23.8611,VALID,109,VALID,0.696875,
2008-04-24, 01:26:05,VALID,1004.59,VALID,0,VALID,96.902,VALID,0,VALID,23.8824,VALID,108,VALID,0.806641,
2008-04-24, 01:27:05,VALID,1004.63,VALID,0,VALID,96.9249,VALID,0,VALID,23.8805,VALID,90,VALID,0.687109,
2008-04-24, 01:28:05,VALID,1004.6,VALID,0.5,VALID,96.9173,VALID,0,VALID,23.9213,VALID,104,VALID,0.633594,
2008-04-24, 01:29:05,VALID,1004.59,VALID,0,VALID,96.9326,VALID,0,VALID,23.9195,VALID,118,VALID,0.836328,
2008-04-24, 01:30:05,VALID,1004.57,VALID,0,VALID,96.9097,VALID,0,VALID,23.9195,VALID,107,VALID,0.476172,
2008-04-24, 01:31:05,VALID,1004.55,VALID,0,VALID,96.9173,VALID,0,VALID,23.8982,VALID,89,VALID,0.704297,
2008-04-24, 01:32:05,VALID,1004.52,VALID,0,VALID,96.9173,VALID,0,VALID,23.9195,VALID,116,VALID,0.530469,
2008-04-24, 01:33:05,VALID,1004.5,VALID,0,VALID,96.9173,VALID,0,VALID,23.9195,VALID,101,VALID,0.465625,
2008-04-24, 01:34:05,VALID,1004.49,VALID,0,VALID,96.9097,VALID,0,VALID,23.9389,VALID,102,VALID,0.501953,
2008-04-24, 01:35:05,VALID,1004.49,VALID,0,VALID,96.9173,VALID,0,VALID,23.9389,VALID,100,VALID,0.634766,
2008-04-24, 01:36:05,VALID,1004.51,VALID,0,VALID,96.9097,VALID,0,VALID,23.9389,VALID,99,VALID,0.308594,
2008-04-24, 01:37:05,VALID,1004.5,VALID,0,VALID,96.9173,VALID,0,VALID,23.9195,VALID,78,VALID,0.724219,
2008-04-24, 01:38:05,VALID,1004.51,VALID,0,VALID,96.8944,VALID,0,VALID,23.9195,VALID,71,VALID,0.489062,
2008-04-24, 01:39:05,VALID,1004.5,VALID,0,VALID,96.9097,VALID,0,VALID,23.9195,VALID,71,VALID,0.239844,
2008-04-24, 01:40:05,VALID,1004.5,VALID,0,VALID,96.9173,VALID,0,VALID,23.9195,VALID,68,VALID,0.266797,
2008-04-24, 01:41:05,VALID,1004.48,VALID,0,VALID,96.9097,VALID,0,VALID,23.9195,VALID,72,VALID,0.365625,
2008-04-24, 01:42:05,VALID,1004.42,VALID,0,VALID,96.9097,VALID,0,VALID,23.9195,VALID,34,VALID,0.522656,
2008-04-24, 01:43:05,VALID,1004.41,VALID,0,VALID,96.9249,VALID,0,VALID,23.9177,VALID,71,VALID,0.808203,
2008-04-24, 01:44:05,VALID,1004.42,VALID,0,VALID,96.9097,VALID,0,VALID,23.9389,VALID,65,VALID,0.617578,
2008-04-24, 01:45:05,VALID,1004.39,VALID,0,VALID,96.9173,VALID,0,VALID,23.9602,VALID,80,VALID,0.412891,
2008-04-24, 01:46:05,VALID,1004.41,VALID,0,VALID,96.9097,VALID,0,VALID,23.9389,VALID,73,VALID,0.345703,
2008-04-24, 01:47:05,VALID,1004.38,VALID,0,VALID,96.902,VALID,0,VALID,23.9389,VALID,73,VALID,0.239063,
2008-04-24, 01:48:04,VALID,1004.41,VALID,0,VALID,96.9173,VALID,0,VALID,23.9584,VALID,88,VALID,0.587109,
2008-04-24, 01:49:04,VALID,1004.39,VALID,0,VALID,96.9478,VALID,0,VALID,23.9584,VALID,102,VALID,0.280469,
2008-04-24, 01:50:04,VALID,1004.36,VALID,0,VALID,96.902,VALID,0,VALID,23.9584,VALID,102,VALID,0.211328,
2008-04-24, 01:51:04,VALID,1004.36,VALID,0,VALID,96.9097,VALID,0,VALID,23.9584,VALID,101,VALID,0.144141,
2008-04-24, 01:52:04,VALID,1004.38,VALID,0,VALID,96.9249,VALID,0,VALID,23.9797,VALID,101,VALID,0.239844,
2008-04-24, 01:53:04,VALID,1004.37,VALID,0,VALID,96.9326,VALID,0,VALID,23.9584,VALID,53,VALID,0.339844,
2008-04-24, 01:54:04,VALID,1004.4,VALID,0.5,VALID,96.9173,VALID,0,VALID,23.9779,VALID,53,VALID,0.200391,
2008-04-24, 01:55:04,VALID,1004.41,VALID,0,VALID,96.9249,VALID,0,VALID,23.9973,VALID,71,VALID,0.383203,
2008-04-24, 01:56:04,VALID,1004.43,VALID,0,VALID,96.9249,VALID,0,VALID,24.0186,VALID,71,VALID,0.213281,
2008-04-24, 01:57:04,VALID,1004.47,VALID,0,VALID,96.9326,VALID,0,VALID,24.0168,VALID,72,VALID,0.380078,
2008-04-24, 01:58:04,VALID,1004.49,VALID,0,VALID,96.9326,VALID,0,VALID,23.9761,VALID,91,VALID,0.489062,
2008-04-24, 01:59:04,VALID,1004.49,VALID,0,VALID,96.9173,VALID,0,VALID,24.0168,VALID,65,VALID,0.668359,
2008-04-24, 02:00:04,VALID,1004.47,VALID,0.5,VALID,96.9402,VALID,0,VALID,24.0363,VALID,79,VALID,0.778125,
2008-04-24, 02:01:04,VALID,1004.48,VALID,0,VALID,96.9402,VALID,0,VALID,24.0363,VALID,92,VALID,0.494922,
2008-04-24, 02:02:04,VALID,1004.46,VALID,0,VALID,96.9173,VALID,0,VALID,24.0557,VALID,72,VALID,0.413281,
2008-04-24, 02:03:04,VALID,1004.46,VALID,0,VALID,96.9402,VALID,0,VALID,24.0557,VALID,86,VALID,0.676562,
2008-04-24, 02:04:04,VALID,1004.43,VALID,0,VALID,96.9402,VALID,0,VALID,24.0557,VALID,86,VALID,0.450391,
2008-04-24, 02:05:04,VALID,1004.43,VALID,0,VALID,96.9249,VALID,0,VALID,24.0752,VALID,87,VALID,0.530078,
2008-04-24, 02:06:04,VALID,1004.41,VALID,0.5,VALID,96.9249,VALID,0,VALID,24.077,VALID,91,VALID,0.580469,
2008-04-24, 02:07:04,VALID,1004.4,VALID,0,VALID,96.9249,VALID,0,VALID,24.0557,VALID,69,VALID,0.477734,
2008-04-24, 02:08:04,VALID,1004.39,VALID,0,VALID,96.9402,VALID,0,VALID,24.0557,VALID,77,VALID,0.310547,
2008-04-24, 02:09:04,VALID,1004.37,VALID,0,VALID,96.9326,VALID,0,VALID,24.0752,VALID,73,VALID,0.665625,
2008-04-24, 02:10:04,VALID,1004.37,VALID,0,VALID,96.9097,VALID,0,VALID,24.0752,VALID,56,VALID,0.414453,
2008-04-24, 02:11:04,VALID,1004.37,VALID,0,VALID,96.9173,VALID,0,VALID,24.0965,VALID,49,VALID,0.149219,
2008-04-24, 02:12:04,VALID,1004.33,VALID,0,VALID,96.9173,VALID,0,VALID,24.0752,VALID,78,VALID,0.414453,
2008-04-24, 02:13:04,VALID,1004.35,VALID,0,VALID,96.9173,VALID,0,VALID,24.0752,VALID,69,VALID,0.500781,
2008-04-24, 02:14:04,VALID,1004.35,VALID,0,VALID,96.9173,VALID,0,VALID,24.0752,VALID,70,VALID,0.339844,
2008-04-24, 02:15:04,VALID,1004.37,VALID,0,VALID,96.902,VALID,0,VALID,24.0965,VALID,79,VALID,0.560938,
2008-04-24, 02:16:04,VALID,1004.38,VALID,0,VALID,96.902,VALID,0,VALID,24.0557,VALID,80,VALID,0.609766,
2008-04-24, 02:17:04,VALID,1004.34,VALID,0,VALID,96.9173,VALID,0,VALID,24.0752,VALID,76,VALID,0.350781,
2008-04-24, 02:18:04,VALID,1004.33,VALID,0.5,VALID,96.902,VALID,0,VALID,24.0557,VALID,57,VALID,0.547266,
2008-04-24, 02:19:04,VALID,1004.34,VALID,0,VALID,96.9173,VALID,0,VALID,24.0557,VALID,70,VALID,0.791406,
2008-04-24, 02:20:04,VALID,1004.36,VALID,0,VALID,96.8944,VALID,0,VALID,24.0557,VALID,81,VALID,0.633984,
2008-04-24, 02:21:04,VALID,1004.36,VALID,0,VALID,96.9097,VALID,0,VALID,24.0345,VALID,76,VALID,0.2,
2008-04-24, 02:22:04,VALID,1004.37,VALID,0,VALID,96.9173,VALID,0,VALID,24.0557,VALID,94,VALID,0.533984,
2008-04-24, 02:23:04,VALID,1004.34,VALID,0,VALID,96.902,VALID,0,VALID,24.0363,VALID,86,VALID,0.190625,
2008-04-24, 02:24:04,VALID,1004.36,VALID,0,VALID,96.9173,VALID,0,VALID,24.0557,VALID,35,VALID,0.380859,
2008-04-24, 02:25:04,VALID,1004.34,VALID,0,VALID,96.9249,VALID,0,VALID,24.0557,VALID,27,VALID,0.353516,
2008-04-24, 02:26:04,VALID,1004.34,VALID,0,VALID,96.9326,VALID,0,VALID,24.077,VALID,45,VALID,0.710547,
2008-04-24, 02:27:04,VALID,1004.32,VALID,0.5,VALID,96.9249,VALID,0,VALID,24.0557,VALID,67,VALID,0.610547,
2008-04-24, 02:28:04,VALID,1004.3,VALID,0,VALID,96.9173,VALID,0,VALID,24.0557,VALID,60,VALID,0.405469,
2008-04-24, 02:29:04,VALID,1004.33,VALID,0,VALID,96.9173,VALID,0,VALID,24.0363,VALID,93,VALID,0.901172,
2008-04-24, 02:30:04,VALID,1004.33,VALID,0,VALID,96.902,VALID,0,VALID,24.0168,VALID,127,VALID,1.19766,
2008-04-24, 02:31:04,VALID,1004.28,VALID,0.5,VALID,96.9097,VALID,0,VALID,24.0363,VALID,126,VALID,1.12148,
2008-04-24, 02:32:04,VALID,1004.29,VALID,0,VALID,96.9326,VALID,0,VALID,24.0168,VALID,117,VALID,0.525781,
2008-04-24, 02:33:04,VALID,1004.27,VALID,0.5,VALID,96.9097,VALID,0,VALID,23.9973,VALID,95,VALID,0.855469,
2008-04-24, 02:34:04,VALID,1004.26,VALID,0,VALID,96.9173,VALID,0,VALID,23.9779,VALID,92,VALID,0.892578,
2008-04-24, 02:35:04,VALID,1004.24,VALID,0,VALID,96.9173,VALID,0,VALID,23.9779,VALID,85,VALID,0.749609,
2008-04-24, 02:36:04,VALID,1004.22,VALID,0,VALID,96.9173,VALID,0,VALID,23.9584,VALID,78,VALID,0.196484,
2008-04-24, 02:37:04,VALID,1004.28,VALID,0.5,VALID,96.9326,VALID,0,VALID,23.9584,VALID,78,VALID,0.201172,
2008-04-24, 02:38:04,VALID,1004.28,VALID,0,VALID,96.9249,VALID,0,VALID,23.9797,VALID,78,VALID,0.646484,
2008-04-24, 02:39:04,VALID,1004.25,VALID,0,VALID,96.9326,VALID,0,VALID,23.9584,VALID,99,VALID,0.70625,
2008-04-24, 02:40:04,VALID,1004.24,VALID,0,VALID,96.9173,VALID,0,VALID,23.9389,VALID,82,VALID,0.399219,
2008-04-24, 02:41:04,VALID,1004.2,VALID,0,VALID,96.9326,VALID,0,VALID,23.9584,VALID,82,VALID,0.0738281,
2008-04-24, 02:42:04,VALID,1004.15,VALID,0,VALID,96.9097,VALID,0,VALID,23.9389,VALID,82,VALID,0.207422,
2008-04-24, 02:43:04,VALID,1004.16,VALID,0,VALID,96.9402,VALID,0,VALID,23.9389,VALID,82,VALID,0,
2008-04-24, 02:44:04,VALID,1004.1,VALID,0,VALID,96.9402,VALID,0,VALID,23.9195,VALID,82,VALID,0.267969,
2008-04-24, 02:45:04,VALID,1004.09,VALID,0,VALID,96.9478,VALID,0,VALID,23.9213,VALID,82,VALID,0.214062,
2008-04-24, 02:46:04,VALID,1004.06,VALID,0,VALID,96.9326,VALID,0,VALID,23.9,VALID,82,VALID,0.146094,
2008-04-24, 02:47:04,VALID,1004.09,VALID,0,VALID,96.9249,VALID,0,VALID,23.8805,VALID,82,VALID,0.313281,
2008-04-24, 02:48:04,VALID,1004.07,VALID,0,VALID,96.9478,VALID,0,VALID,23.8593,VALID,82,VALID,0.106641,
2008-04-24, 02:49:04,VALID,1004.09,VALID,0,VALID,96.9326,VALID,0,VALID,23.8611,VALID,88,VALID,0.682422,
2008-04-24, 02:50:04,VALID,1004.06,VALID,0,VALID,96.9478,VALID,0,VALID,23.8611,VALID,99,VALID,0.433203,
2008-04-24, 02:51:04,VALID,1004.03,VALID,0,VALID,96.9326,VALID,0,VALID,23.8416,VALID,99,VALID,0.299219,
2008-04-24, 02:52:04,VALID,1004.01,VALID,0.5,VALID,96.9631,VALID,0,VALID,23.8203,VALID,99,VALID,0.367188,
2008-04-24, 02:53:04,VALID,1004,VALID,0,VALID,96.9478,VALID,0,VALID,23.8611,VALID,99,VALID,0.418359,
2008-04-24, 02:54:04,VALID,1003.99,VALID,0,VALID,96.9478,VALID,0,VALID,23.8416,VALID,99,VALID,0.474609,
2008-04-24, 02:55:04,VALID,1004.01,VALID,0,VALID,96.9478,VALID,0,VALID,23.8203,VALID,97,VALID,0.466797,
2008-04-24, 02:56:04,VALID,1004.02,VALID,0,VALID,96.9707,VALID,0,VALID,23.8416,VALID,96,VALID,0.624219,
2008-04-24, 02:57:04,VALID,1004.03,VALID,0,VALID,96.9402,VALID,0,VALID,23.8416,VALID,100,VALID,0.469922,
2008-04-24, 02:58:04,VALID,1004.01,VALID,0,VALID,96.9631,VALID,0,VALID,23.8611,VALID,79,VALID,0.685547,
2008-04-24, 02:59:04,VALID,1003.98,VALID,0,VALID,96.9554,VALID,0,VALID,23.8416,VALID,78,VALID,0.438281,
2008-04-24, 03:00:04,VALID,1003.96,VALID,0,VALID,96.9554,VALID,0,VALID,23.8611,VALID,67,VALID,0.410156,
2008-04-24, 03:01:04,VALID,1003.94,VALID,0,VALID,96.9631,VALID,0,VALID,23.8416,VALID,67,VALID,0.424609,
2008-04-24, 03:02:04,VALID,1003.96,VALID,0.5,VALID,96.9631,VALID,0,VALID,23.8203,VALID,84,VALID,0.598047,
2008-04-24, 03:03:04,VALID,1003.94,VALID,0,VALID,96.9707,VALID,0,VALID,23.8203,VALID,88,VALID,0.280859,
2008-04-24, 03:04:04,VALID,1003.97,VALID,0,VALID,96.9783,VALID,0,VALID,23.8611,VALID,94,VALID,0.339453,
2008-04-24, 03:05:04,VALID,1003.97,VALID,0,VALID,96.9707,VALID,0,VALID,23.8398,VALID,55,VALID,0.233594,
2008-04-24, 03:06:04,VALID,1003.95,VALID,0,VALID,96.9707,VALID,0,VALID,23.8398,VALID,55,VALID,0.465234,
2008-04-24, 03:07:04,VALID,1003.91,VALID,0,VALID,96.9783,VALID,0,VALID,23.8416,VALID,47,VALID,0.482812,
2008-04-24, 03:08:04,VALID,1003.94,VALID,0,VALID,96.9783,VALID,0,VALID,23.8611,VALID,60,VALID,0.475,
2008-04-24, 03:09:04,VALID,1003.98,VALID,0,VALID,96.9707,VALID,0,VALID,23.8611,VALID,44,VALID,0.300781,
2008-04-24, 03:10:04,VALID,1004.02,VALID,0,VALID,96.9783,VALID,0,VALID,23.8416,VALID,79,VALID,1.12695,
2008-04-24, 03:11:04,VALID,1004.04,VALID,0,VALID,96.9707,VALID,0,VALID,23.8416,VALID,78,VALID,0.627344,
2008-04-24, 03:12:04,VALID,1004.04,VALID,0,VALID,96.9783,VALID,0,VALID,23.8416,VALID,38,VALID,1,
2008-04-24, 03:13:04,VALID,1004.06,VALID,0,VALID,96.9783,VALID,0,VALID,23.8416,VALID,58,VALID,0.623047,
2008-04-24, 03:14:04,VALID,1004.06,VALID,0.5,VALID,96.9783,VALID,0,VALID,23.8221,VALID,30,VALID,0.652734,
2008-04-24, 03:15:04,VALID,1004.08,VALID,0,VALID,96.9707,VALID,0,VALID,23.8221,VALID,29,VALID,1.01641,
2008-04-24, 03:16:04,VALID,1004.09,VALID,0,VALID,96.9783,VALID,0,VALID,23.8416,VALID,39,VALID,0.903906,
2008-04-24, 03:17:04,VALID,1004.09,VALID,0,VALID,96.986,VALID,0,VALID,23.8221,VALID,60,VALID,0.601172,
2008-04-24, 03:18:04,VALID,1004.1,VALID,0,VALID,96.986,VALID,0,VALID,23.8221,VALID,47,VALID,0.621484,
2008-04-24, 03:19:04,VALID,1004.12,VALID,0,VALID,96.9554,VALID,0,VALID,23.8221,VALID,24,VALID,1.73203,
2008-04-24, 03:20:04,VALID,1004.13,VALID,0,VALID,96.9707,VALID,0,VALID,23.8027,VALID,44,VALID,0.785156,
2008-04-24, 03:21:04,VALID,1004.13,VALID,0,VALID,96.9783,VALID,0,VALID,23.7814,VALID,33,VALID,1.21172,
2008-04-24, 03:22:04,VALID,1004.12,VALID,0,VALID,96.986,VALID,0,VALID,23.7637,VALID,30,VALID,0.653906,
2008-04-24, 03:23:04,VALID,1004.09,VALID,0,VALID,96.9783,VALID,0,VALID,23.7637,VALID,60,VALID,0.677734,
2008-04-24, 03:24:04,VALID,1004.11,VALID,0,VALID,96.9707,VALID,0,VALID,23.7619,VALID,9,VALID,0.688672,
2008-04-24, 03:25:04,VALID,1004.12,VALID,0,VALID,96.9631,VALID,0,VALID,23.7443,VALID,31,VALID,0.6125,
2008-04-24, 03:26:04,VALID,1004.16,VALID,0,VALID,96.986,VALID,0,VALID,23.7053,VALID,25,VALID,1.35469,
2008-04-24, 03:27:04,VALID,1004.17,VALID,0,VALID,96.9478,VALID,0,VALID,23.6664,VALID,29,VALID,2.21875,
2008-04-24, 03:28:04,VALID,1004.19,VALID,0.5,VALID,96.9554,VALID,0,VALID,23.6469,VALID,5,VALID,1.12891,
2008-04-24, 03:29:04,VALID,1004.18,VALID,0,VALID,96.9554,VALID,0,VALID,23.6062,VALID,11,VALID,0.571094,
2008-04-24, 03:30:04,VALID,1004.17,VALID,0,VALID,96.9478,VALID,0,VALID,23.5868,VALID,39,VALID,0.898047,
2008-04-24, 03:31:04,VALID,1004.17,VALID,0,VALID,96.9554,VALID,0,VALID,23.5673,VALID,25,VALID,0.589063,
2008-04-24, 03:32:04,VALID,1004.18,VALID,0.5,VALID,96.9631,VALID,0,VALID,23.5673,VALID,6,VALID,1.09414,
2008-04-24, 03:33:04,VALID,1004.19,VALID,0,VALID,96.9554,VALID,0,VALID,23.5496,VALID,20,VALID,0.623828,
2008-04-24, 03:34:04,VALID,1004.17,VALID,0,VALID,96.9554,VALID,0,VALID,23.5302,VALID,11,VALID,1.39961,
2008-04-24, 03:35:04,VALID,1004.15,VALID,0,VALID,96.9402,VALID,0,VALID,23.5302,VALID,1,VALID,0.857031,
2008-04-24, 03:36:04,VALID,1004.11,VALID,0.5,VALID,96.9554,VALID,0,VALID,23.5302,VALID,60,VALID,0.550391,
2008-04-24, 03:37:04,VALID,1004.12,VALID,0,VALID,96.9554,VALID,0,VALID,23.5107,VALID,41,VALID,0.641016,
2008-04-24, 03:38:04,VALID,1004.16,VALID,0,VALID,96.9936,VALID,0,VALID,23.47,VALID,52,VALID,0.970312,
2008-04-24, 03:39:04,VALID,1004.14,VALID,0.5,VALID,96.9631,VALID,0,VALID,23.4912,VALID,44,VALID,0.245312,
2008-04-24, 03:40:04,VALID,1004.16,VALID,0,VALID,96.9707,VALID,0,VALID,23.47,VALID,66,VALID,0.379297,
2008-04-24, 03:41:04,VALID,1004.17,VALID,0,VALID,96.9631,VALID,0,VALID,23.4718,VALID,19,VALID,1.62656,
2008-04-24, 03:42:04,VALID,1004.15,VALID,0,VALID,96.9707,VALID,0,VALID,23.4311,VALID,21,VALID,0.803125,
2008-04-24, 03:43:04,VALID,1004.2,VALID,0,VALID,96.9631,VALID,0,VALID,23.4116,VALID,34,VALID,1.01016,
2008-04-24, 03:44:04,VALID,1004.19,VALID,0,VALID,96.9707,VALID,0,VALID,23.4328,VALID,26,VALID,0.510156,
2008-04-24, 03:45:04,VALID,1004.23,VALID,0,VALID,96.986,VALID,0,VALID,23.4328,VALID,41,VALID,0.638672,
2008-04-24, 03:46:04,VALID,1004.29,VALID,0.5,VALID,96.9707,VALID,0,VALID,23.3727,VALID,85,VALID,0.732422,